Theta_e
296 298 297 297 297 298 298 297 300 299 301 302 301 304 306 309 312 313 315 316 319 321 321 322 319 319 319 321 320 321 320 320 322 322 315 315 319 319 320 321 315 316 315 315
297 297 297 297 298 298 298 298 298 299 301 302 303 303 305 308 311 313 314 315 315 317 320 321 321 322 320 320 322 321 320 321 324 322 320 314 314 319 318 312 311 313 321 315
298 297 298 297 297 298 299 299 300 299 300 301 301 303 305 307 310 313 314 314 316 316 317 319 317 321 315 312 317 321 320 321 322 325 321 318 314 317 317 318 319 315 319 309
298 298 298 297 298 299 298 298 300 300 300 300 302 303 307 308 310 311 314 315 316 316 317 317 321 320 312 310 309 317 321 323 319 315 316 316 317 316 317 317 318 319 318 313
298 298 297 298 299 299 299 298 300 302 300 300 301 303 306 309 310 311 314 316 315 315 316 316 317 316 314 313 309 311 309 317 313 316 314 314 316 316 316 316 316 317 313 312
297 297 297 298 299 299 298 298 300 301 302 301 302 303 306 307 310 308 312 314 315 316 315 314 312 311 309 310 310 308 311 311 315 314 312 312 315 313 314 315 314 314 314 310
297 297 297 299 299 299 298 298 299 300 303 302 304 303 304 308 310 310 311 312 313 313 312 309 308 305 306 309 308 309 310 310 309 310 310 315 313 311 312 314 313 312 312 307
297 298 298 299 299 299 299 299 300 301 302 303 303 304 305 308 309 309 310 312 313 311 310 306 307 306 307 305 303 307 308 307 306 309 311 308 306 306 311 313 312 311 311 306
298 298 299 300 300 300 299 300 300 300 302 305 304 306 306 308 309 305 308 310 312 310 305 306 307 308 308 308 307 304 304 305 310 308 309 312 308 304 308 307 308 304 305 303
297 299 299 300 300 300 301 300 300 300 302 303 305 306 307 308 308 307 307 305 305 306 306 306 307 306 308 308 308 308 307 306 309 308 309 307 306 304 307 307 305 304 302 302
299 299 300 300 301 301 304 303 304 301 303 306 306 307 308 307 307 307 303 305 302 303 308 308 305 305 306 308 307 307 307 306 307 307 307 310 305 303 304 304 302 301 301 301
299 299 299 300 300 302 302 303 301 302 306 306 308 309 308 308 307 306 303 305 303 304 305 305 304 305 304 305 307 305 306 305 306 306 306 305 303 302 302 302 301 301 301 301
299 299 299 299 299 302 303 302 304 305 303 303 305 305 306 306 307 306 306 303 304 303 304 304 304 305 304 306 305 304 304 305 304 305 304 302 302 301 301 301 300 300 300 301
298 299 299 299 299 299 302 303 304 305 302 302 301 304 304 304 305 305 306 304 304 304 304 302 303 304 304 304 304 305 304 304 304 304 303 302 301 301 300 300 300 300 300 300
298 298 299 300 300 299 299 300 300 302 303 301 300 300 301 303 304 304 304 304 304 304 302 301 302 302 302 301 302 303 304 304 303 302 302 300 300 300 300 300 300 300 300 300
297 298 298 299 301 300 300 301 300 300 301 301 300 299 300 301 303 303 303 302 302 303 301 301 301 303 301 303 301 301 303 304 302 300 301 301 300 300 300 300 300 300 300 300
297 297 298 298 299 299 299 299 299 299 300 299 300 300 299 300 300 301 302 302 302 302 301 300 300 300 300 300 302 301 302 303 301 300 300 300 300 300 300 300 299 299 299 299
296 296 297 298 299 298 299 299 300 300 299 299 299 300 300 300 300 300 301 301 301 301 300 300 300 301 298 300 300 300 300 299 299 300 300 300 300 300 299 299 299 299 299 299
296 297 295 295 297 298 298 298 299 300 300 299 299 300 300 299 299 299 300 300 300 300 299 300 300 299 298 299 300 299 300 300 300 300 300 299 299 300 300 299 299 299 299 298
296 296 296 297 299 298 298 298 297 299 300 299 299 299 301 299 298 299 299 299 299 300 299 299 298 300 300 301 300 300 300 300 300 299 299 299 299 299 299 299 298 298 296 295
298 298 299 298 298 298 298 294 297 297 299 299 299 299 299 299 299 299 298 298 298 299 298 298 299 299 297 300 300 300 300 300 300 300 299 299 299 298 298 297 296 295 294 294
299 299 299 298 298 297 293 292 296 297 298 298 299 298 298 299 299 297 297 298 298 300 294 294 297 295 299 299 299 298 298 298 298 298 298 298 297 296 296 295 295 294 293 294
299 299 297 297 294 293 298 295 297 294 296 298 298 297 298 298 299 296 297 296 297 296 292 297 295 296 297 297 296 296 295 296 295 295 294 294 294 294 293 293 292 293 293 293
299 297 292 293 292 295 298 297 294 296 298 298 298 294 296 297 296 295 296 297 297 294 292 297 293 297 296 296 295 295 294 293 293 292 292 292 292 291 291 291 291 291 292 292
299 297 293 294 295 295 296 297 297 298 298 298 297 297 296 295 293 296 296 295 295 298 294 293 296 297 296 296 295 294 293 293 293 292 291 290 291 291 290 290 290 291 291 291
298 296 294 295 290 287 295 297 299 298 299 298 297 295 292 294 296 298 294 298 297 295 293 298 297 297 296 295 295 294 294 293 292 291 291 291 290 290 290 289 289 289 289 290
298 295 295 295 294 295 295 296 298 298 298 293 294 295 296 295 296 298 296 294 294 293 298 297 298 297 297 296 295 294 293 292 292 291 290 290 289 289 290 289 289 289 289 289
Wind_Speed
27 26 24 23 22 18 19 17 7 10 16 7 3 9 3 6 14 26 10 10 8 13 22 22 20 26 21 24 26 34 29 3 8 11 4 2 21 18 16 9 7 6 4 5
26 24 24 23 21 21 21 11 12 12 20 6 9 2 6 8 17 22 9 9 12 3 15 16 21 16 3 13 21 27 20 7 6 7 8 3 8 18 20 6 4 11 11 5
25 24 23 22 23 24 30 12 4 13 23 19 9 15 14 7 21 22 20 11 5 11 5 2 11 18 2 1 6 30 26 9 21 21 8 9 8 14 20 17 11 8 14 7
25 24 23 22 24 24 23 15 7 11 7 15 20 14 12 14 9 11 27 16 17 22 8 4 16 9 2 4 8 6 19 20 15 2 3 4 14 15 19 23 29 17 16 11
23 22 23 24 26 23 30 8 9 13 12 14 23 22 16 19 9 12 23 14 23 17 22 18 6 5 4 5 3 3 1 1 6 5 2 3 3 14 14 17 15 17 9 5
23 23 22 27 26 23 17 24 15 15 8 15 19 22 21 24 16 9 18 22 22 21 18 10 7 8 7 5 6 2 6 6 7 5 5 7 4 21 22 18 10 9 13 5
22 21 28 29 28 27 29 23 21 7 10 15 20 25 28 21 23 14 13 29 16 11 21 23 15 14 12 6 6 4 6 10 2 5 6 7 5 10 10 16 13 12 9 4
20 22 30 34 30 29 38 34 33 17 8 15 21 21 26 19 17 9 14 7 23 31 17 4 4 3 3 4 3 7 5 4 5 6 8 3 5 6 12 14 11 13 14 9
20 26 32 29 36 32 37 42 48 38 9 14 31 23 27 14 13 4 4 10 32 29 3 3 6 5 5 6 5 3 5 3 3 4 6 12 4 7 20 5 6 7 13 9
22 26 26 25 28 27 29 38 53 43 12 32 27 14 18 16 11 5 5 10 5 12 4 3 3 3 7 9 14 8 6 3 6 5 2 4 4 8 27 13 6 9 17 16
20 24 24 25 21 14 19 30 49 56 18 16 34 24 26 13 17 9 7 10 1 1 4 5 4 3 5 3 9 8 8 9 4 3 3 7 10 15 14 6 10 20 23 20
21 22 26 28 19 4 6 11 55 47 26 8 15 24 33 30 28 22 23 3 7 5 4 2 4 3 4 6 6 1 4 4 7 5 4 2 18 5 20 27 23 16 17 14
25 20 25 30 31 19 23 28 37 26 16 12 15 9 18 16 26 35 8 7 15 9 7 5 3 4 4 6 4 5 4 3 4 5 5 5 15 23 24 20 18 15 12 13
23 24 26 29 29 31 25 26 18 22 13 3 6 15 13 11 17 25 22 16 11 16 12 3 3 3 3 3 5 4 4 8 9 2 10 11 14 20 19 15 13 14 13 11
23 23 27 25 20 25 33 32 27 10 6 4 4 22 20 17 23 24 26 30 27 19 4 2 2 3 4 3 3 3 7 8 7 5 12 8 11 22 25 22 17 13 10 8
19 20 23 22 11 16 10 13 33 25 23 9 3 6 16 22 25 27 28 23 12 8 4 2 4 6 3 3 3 4 18 24 13 5 21 24 23 20 15 17 12 8 4 1
19 19 20 20 27 33 21 8 15 16 12 5 3 3 7 12 12 15 18 15 6 3 3 2 3 2 5 2 2 3 20 26 24 32 34 18 17 13 12 10 7 6 2 2
14 12 16 20 23 24 26 24 21 15 7 7 3 2 4 10 6 4 8 5 5 11 2 3 3 3 2 3 1 14 24 29 29 22 18 21 19 11 8 7 8 7 8 7
14 7 11 8 20 16 14 15 19 18 11 3 3 2 3 5 7 7 9 8 4 6 3 3 4 2 1 3 5 14 25 16 24 25 24 20 17 17 13 9 8 8 10 7
18 17 8 8 16 14 9 4 4 9 11 10 3 4 3 4 3 3 2 3 1 2 1 2 3 1 3 7 12 16 21 32 28 27 16 18 18 17 16 13 10 8 6 5
22 12 7 16 13 10 7 4 4 5 3 5 3 6 3 8 3 2 4 1 2 2 2 3 1 1 0 10 19 21 23 22 16 15 17 13 14 18 15 12 9 4 4 6
14 11 8 10 10 7 6 3 4 5 3 3 2 3 5 5 4 3 4 2 2 1 1 3 1 3 10 20 20 18 16 14 13 10 13 15 14 11 9 11 9 7 6 6
7 5 4 5 5 8 5 5 4 3 2 2 2 3 3 3 4 2 2 3 1 1 3 2 3 6 12 19 20 18 14 14 14 15 13 12 12 12 10 11 10 11 9 8
8 5 7 4 4 3 2 3 3 4 6 12 7 2 2 2 3 1 3 2 2 2 1 3 2 14 21 20 18 16 15 15 17 17 15 15 15 15 13 12 12 11 11 9
5 4 3 3 1 1 4 9 5 5 8 5 3 3 3 2 3 1 2 3 1 4 4 3 8 23 25 22 17 17 17 15 14 14 14 14 14 14 13 12 11 9 8 9
2 4 2 3 3 4 6 8 8 8 1 1 2 2 3 2 3 2 3 3 3 3 3 6 20 24 22 20 17 18 16 16 13 11 13 13 13 12 12 12 10 8 5 7
2 1 1 1 2 2 4 7 6 12 2 1 2 2 3 2 1 2 3 4 3 4 10 14 23 24 20 18 16 16 16 14 13 13 13 14 13 12 12 12 10 8 7 7
Wind_Direction
277 274 271 262 258 253 237 244 236 244 188 190 185 227 205 236 205 216 210 205 183 186 195 201 196 215 207 190 183 197 207 152 209 199 170 258 216 201 182 182 217 216 155 260
275 273 265 260 250 244 245 227 236 226 199 206 217 222 226 220 227 208 196 191 217 146 192 204 209 211 184 177 185 192 182 206 233 291 293 177 221 206 198 111 101 201 198 231
274 271 265 256 260 252 230 230 223 202 218 238 223 208 235 218 227 217 210 200 102 188 198 266 218 215 125 80 225 203 177 171 211 223 244 159 188 197 204 193 212 166 216 144
274 274 266 264 263 263 241 218 217 196 198 210 221 212 187 209 204 237 196 200 201 192 185 208 228 193 118 34 348 159 180 210 203 156 16 289 201 191 192 198 217 204 214 183
278 275 271 265 274 263 225 217 201 198 231 200 211 217 208 197 199 179 198 196 196 199 198 202 187 159 175 187 36 121 353 243 146 194 330 359 221 188 191 208 209 227 164 180
279 277 272 273 276 256 233 215 214 221 223 209 197 208 212 213 190 234 198 196 190 202 208 185 113 115 54 103 143 134 142 126 161 196 133 105 266 214 199 203 183 199 205 134
282 277 280 281 278 246 234 224 210 224 219 199 208 200 207 204 199 191 209 203 200 184 134 110 85 75 64 84 75 92 135 135 93 131 120 205 267 205 196 198 201 201 224 140
284 287 286 289 277 255 242 233 211 216 238 208 204 193 196 200 207 211 186 174 183 158 146 99 85 28 71 46 42 146 170 153 132 165 204 348 266 193 186 180 217 201 210 183
300 297 299 306 299 271 241 245 214 206 211 227 200 193 189 183 181 131 141 167 164 159 111 119 156 175 146 165 117 138 112 96 160 162 171 208 185 171 179 102 252 188 197 177
315 317 319 322 302 273 251 225 215 198 203 221 203 183 190 177 160 141 137 143 166 177 132 121 150 163 145 161 164 166 156 139 190 156 181 278 252 152 144 169 220 155 151 159
332 329 342 346 328 295 231 241 212 188 189 193 205 196 170 168 166 156 139 115 177 186 146 155 154 150 181 138 159 169 173 153 163 147 163 232 201 163 174 156 124 131 134 140
352 350 11 11 8 331 155 119 169 170 172 151 196 196 197 186 177 156 168 140 153 161 119 153 122 152 167 152 174 185 186 187 153 169 195 313 167 127 134 149 142 142 146 155
359 1 25 30 30 69 130 126 149 159 108 84 111 138 172 180 194 182 153 175 166 179 160 145 133 146 162 167 184 116 222 115 107 122 146 178 160 139 148 144 140 148 163 171
7 8 8 11 42 52 111 122 136 141 94 83 50 125 108 167 188 182 193 169 155 149 153 103 149 132 194 163 147 157 185 160 150 173 169 139 150 139 135 131 134 133 130 131
23 18 12 10 55 61 66 82 72 99 135 122 94 82 71 113 147 152 158 153 146 135 96 87 101 127 116 109 84 165 169 171 173 186 167 115 147 136 134 127 126 130 138 131
11 24 34 29 24 31 63 54 44 56 95 98 87 75 42 113 108 112 123 131 119 111 103 115 120 170 113 137 167 174 176 180 150 152 146 131 127 123 131 130 126 128 138 182
12 40 45 46 49 53 53 59 27 40 75 70 72 62 40 112 100 80 109 118 114 102 130 63 99 43 78 80 101 139 156 163 140 137 128 114 133 126 123 126 124 122 144 233
20 40 47 56 58 64 54 43 51 36 65 67 88 91 67 27 31 65 53 69 54 31 54 54 62 42 56 76 70 98 118 126 133 139 151 141 129 134 136 144 143 134 128 133
10 341 1 24 31 30 32 58 55 41 45 88 51 45 83 38 43 54 37 34 37 357 47 18 55 347 61 146 141 120 129 128 127 124 124 130 132 136 139 154 143 157 151 156
17 27 22 7 350 355 9 41 36 29 37 44 29 27 66 54 44 50 90 29 86 72 330 30 66 294 32 110 137 134 141 148 146 127 122 136 143 148 148 150 158 170 175 194
11 6 359 344 354 9 26 26 44 4 54 43 64 72 89 36 68 84 37 123 14 76 275 102 21 324 249 137 129 134 140 149 154 153 158 172 180 171 163 154 162 187 178 188
333 332 332 342 7 23 56 343 354 37 64 38 41 37 71 55 61 69 1 82 28 101 284 72 170 252 159 149 137 137 142 144 138 143 151 157 163 161 173 171 174 210 194 158
356 357 348 14 341 34 32 7 352 13 16 76 70 33 62 69 69 63 74 65 214 96 43 204 222 151 141 147 144 137 138 140 140 135 139 150 165 171 180 181 176 155 152 156
2 356 355 80 359 32 12 332 269 323 116 117 91 38 93 53 55 122 79 270 77 50 45 243 211 162 159 156 154 152 145 145 141 136 140 142 147 144 144 145 153 156 152 145
0 11 2 53 196 18 302 327 4 45 136 116 79 54 83 19 69 42 94 43 218 201 229 235 173 166 164 162 159 154 151 147 144 145 143 148 146 142 149 156 152 144 154 162
328 39 43 350 76 322 347 358 4 35 66 26 51 82 53 343 140 116 193 167 215 236 213 169 159 164 163 160 164 160 165 164 159 166 162 159 157 160 157 141 133 125 133 178
185 169 94 60 274 232 328 324 329 348 331 169 103 107 189 120 72 205 187 204 218 207 148 162 171 168 164 162 166 169 169 171 170 172 171 170 167 171 170 150 139 129 119 110